Showing default

ICEYE-X57, 64578

Orbit data source: Space-Track

ICEYE-X57, 64578 is a payload satellite owned by ICEYE US (US) in SSO that was launched on Mon, 23 Jun 2025 UTC via an FALCON 9 launch vehicle from the Air Force Western Test Range (AFWTR). Payload-class satellites include a variety of spacecraft equipped with specific instruments for various scientific and technological missions. These include communications satellites like Starlink; space stations such as the ISS; scientific satellites like the Hubble; Earth observation satellites from companies like Planet Labs, Umbra, and HawkEye 360; GPS; miniature CubeSats for education and research; and military/defense satellites.

Loading next visibility...
Identifier
64578, 2025-135BC
Orbit
SSO
Country
Flag of USUS
Related business
Manufacturer
ICEYE
Mission
Operational Commercial Radar Imaging
Bus & Motor
ICEYE, Unknown motor
Mass
80 kg wet, 80 kg dry
Launch date (UTC)
2025-06-23 (6 months ago)
Launch vehicle
FALCON 9
Launch site
Air Force Western Test Range (AFWTR)
Object type
Payload
Rocket body
Debris
Shape & HBR
Box + 1 Pan, 0.8 m
Radar Cross Section
0.776 m², Medium (>0.1 m² and < 1m²)

Expand to show TLE details & history
Last TLE update: 12 hours ago

TLE from 12 hours ago
0 ICEYE-X57
1 64578U 25135BC  25340.90969067  .00009266  00000-0  81070-3 0  9998
2 64578  97.7575  92.7815 0002552 243.6063 116.4897 14.96950003 25204
Epoch: 2025-12-06T21:49Z
TLE epoch observation values (Epoch: 2025-12-06T21:49:57.273Z)
Latitude
-0.00003°
Longitude
49.36221°
Altitude
580.168 km
Speed
7.57 km/s
True Right ascension
06h 11m 07s
True Declination
0° 00' 00"
Sunlit
Object was in full shadow at epoch
Visualization orbit readout
Latitude
Unknown
Longitude
Unknown
Altitude
Unknown
Speed
Unknown
Apparent Right ascension
Unknown
Apparent Declination
Unknown
Sunlit
N/A
Visualization observer readout
Local Sidereal Time
08:11:11
Azimuth
Unknown
Elevation
Unknown
Doppler factor
Unknown
Orbital elements
Apogee altitude
575.113 km
Perigee altitude
571.565 km
Semi-major axis
6,951.476 km
Eccentricity
0.00026
Inclination
97.7575°
RAAN
92.7815°
Arg. of periapsis
243.6063°
True anomaly
116.51587°
Mean anomaly
116.4897°
Eccentric anomaly
116.50279°
Mean motion
3.74479 °/min
Orbital period
96.13 mins
BSTAR
0.0008107
Loading maneuver chart data...
Computing Atmospheric mass density...
Loading historical data...
Loading historical data...
Loading historical data...
Loading historical data...
Loading historical data...
Loading historical data...
Loading historical data...

Documentation

Showing up to 5 results
|